Time,TemperatureF,DewpointF,PressureIn,WindDirection,WindDirectionDegrees,WindSpeedMPH,WindSpeedGustMPH,Humidity,HourlyPrecipIn,Conditions,Clouds,dailyrainin,SoftwareType,DateUTC
2013-04-27 00:01:00,72.9,72.5,30.06,South,170,7.0,10.1,99,0.00,,,-99.99,FreeWX 2.03,2013-04-27 05:01:00,
2013-04-27 00:06:00,72.9,72.5,30.06,South,171,7.0,10.1,99,0.00,,,-99.99,FreeWX 2.03,2013-04-27 05:06:00,
2013-04-27 00:11:00,72.9,72.5,30.06,South,173,7.0,10.5,99,0.00,,,-99.99,FreeWX 2.03,2013-04-27 05:11:00,
2013-04-27 00:16:00,72.9,72.5,30.06,South,169,7.0,11.0,99,0.00,,,-99.99,FreeWX 2.03,2013-04-27 05:16:00,
2013-04-27 00:21:00,72.9,72.5,30.06,South,169,7.0,9.2,99,0.00,,,-99.99,FreeWX 2.03,2013-04-27 05:21:00,
2013-04-27 00:26:00,72.9,72.5,30.06,South,172,6.0,10.5,99,0.00,,,-99.99,FreeWX 2.03,2013-04-27 05:26:00,
2013-04-27 00:31:00,72.9,72.5,30.06,South,174,6.0,9.6,99,0.00,,,-99.99,FreeWX 2.03,2013-04-27 05:31:00,
2013-04-27 00:36:00,72.9,72.5,30.06,South,174,6.0,10.1,99,0.00,,,-99.99,FreeWX 2.03,2013-04-27 05:36:00,
2013-04-27 00:41:00,72.9,72.5,30.06,South,174,6.0,10.5,99,0.00,,,-99.99,FreeWX 2.03,2013-04-27 05:41:00,
2013-04-27 00:46:00,72.7,72.3,30.06,South,172,7.0,10.1,99,0.00,,,-99.99,FreeWX 2.03,2013-04-27 05:46:00,
2013-04-27 00:51:00,72.7,72.3,30.06,South,176,8.0,11.6,99,0.00,,,-99.99,FreeWX 2.03,2013-04-27 05:51:00,
2013-04-27 00:56:00,72.7,72.3,30.03,South,175,8.0,11.6,99,0.00,,,-99.99,FreeWX 2.03,2013-04-27 05:56:00,
2013-04-27 01:01:00,72.7,72.3,30.03,South,174,8.0,11.0,99,0.00,,,-99.99,FreeWX 2.03,2013-04-27 06:01:00,
2013-04-27 01:06:00,72.7,72.3,30.03,South,172,7.0,11.2,99,0.00,,,-99.99,FreeWX 2.03,2013-04-27 06:06:00,
2013-04-27 01:11:00,72.7,72.3,30.03,South,174,7.0,12.5,99,0.00,,,-99.99,FreeWX 2.03,2013-04-27 06:11:00,
2013-04-27 01:16:00,72.7,72.3,30.03,South,176,7.0,11.0,99,0.00,,,-99.99,FreeWX 2.03,2013-04-27 06:16:00,
2013-04-27 01:21:00,72.7,72.3,30.03,South,176,7.0,9.6,99,0.00,,,-99.99,FreeWX 2.03,2013-04-27 06:21:00,
2013-04-27 01:26:00,72.7,72.3,30.03,South,176,6.0,10.1,99,0.00,,,-99.99,FreeWX 2.03,2013-04-27 06:26:00,
2013-04-27 01:31:00,72.7,72.3,30.03,South,175,6.0,10.1,99,0.00,,,-99.99,FreeWX 2.03,2013-04-27 06:31:00,
2013-04-27 01:36:00,72.7,72.3,30.03,South,177,6.0,11.2,99,0.00,,,-99.99,FreeWX 2.03,2013-04-27 06:36:00,
2013-04-27 01:41:00,72.5,72.1,30.03,South,177,7.0,11.2,99,0.00,,,-99.99,FreeWX 2.03,2013-04-27 06:41:00,
2013-04-27 01:46:00,72.5,72.1,30.03,South,176,7.0,9.2,99,0.00,,,-99.99,FreeWX 2.03,2013-04-27 06:46:00,
2013-04-27 01:51:00,72.5,72.1,30.03,South,174,7.0,9.6,99,0.00,,,-99.99,FreeWX 2.03,2013-04-27 06:51:00,
2013-04-27 01:56:00,72.5,72.1,30.03,South,174,6.0,10.1,99,0.00,,,-99.99,FreeWX 2.03,2013-04-27 06:56:00,
2013-04-27 02:01:00,72.5,72.1,30.03,South,173,6.0,9.6,99,0.00,,,-99.99,FreeWX 2.03,2013-04-27 07:01:00,
2013-04-27 02:06:00,72.3,72.0,30.03,South,173,6.0,9.2,99,0.00,,,-99.99,FreeWX 2.03,2013-04-27 07:06:00,
2013-04-27 02:11:00,72.3,72.0,30.03,South,176,6.0,10.1,99,0.00,,,-99.99,FreeWX 2.03,2013-04-27 07:11:00,
2013-04-27 02:16:00,72.5,72.1,30.03,South,176,6.0,10.5,99,0.00,,,-99.99,FreeWX 2.03,2013-04-27 07:16:00,
2013-04-27 02:21:00,72.5,72.1,30.03,South,174,6.0,8.7,99,0.00,,,-99.99,FreeWX 2.03,2013-04-27 07:21:00,
2013-04-27 02:26:00,72.5,72.1,30.00,South,173,6.0,8.3,99,0.00,,,-99.99,FreeWX 2.03,2013-04-27 07:26:00,
2013-04-27 02:31:00,72.5,72.1,30.00,South,171,5.0,8.7,99,0.00,,,-99.99,FreeWX 2.03,2013-04-27 07:31:00,
2013-04-27 02:36:00,72.5,72.1,30.00,South,171,6.0,8.3,99,0.00,,,-99.99,FreeWX 2.03,2013-04-27 07:36:00,
2013-04-27 02:41:00,72.5,72.1,30.00,South,172,6.0,9.2,99,0.00,,,-99.99,FreeWX 2.03,2013-04-27 07:41:00,
2013-04-27 02:46:00,72.5,72.1,30.00,South,172,5.0,8.3,99,0.00,,,-99.99,FreeWX 2.03,2013-04-27 07:46:00,
2013-04-27 02:51:00,72.5,72.1,30.00,South,174,5.0,7.4,99,0.00,,,-99.99,FreeWX 2.03,2013-04-27 07:51:00,
2013-04-27 02:56:00,72.5,72.1,30.00,South,174,5.0,7.8,99,0.00,,,-99.99,FreeWX 2.03,2013-04-27 07:56:00,
2013-04-27 03:01:00,72.7,72.3,30.00,South,175,5.0,8.3,99,0.00,,,-99.99,FreeWX 2.03,2013-04-27 08:01:00,
2013-04-27 03:06:00,72.7,72.3,30.00,South,175,5.0,8.3,99,0.00,,,-99.99,FreeWX 2.03,2013-04-27 08:06:00,
2013-04-27 03:11:00,72.7,72.3,30.00,South,175,6.0,8.7,99,0.00,,,-99.99,FreeWX 2.03,2013-04-27 08:11:00,
2013-04-27 03:16:00,72.7,72.3,30.00,South,177,5.0,8.7,99,0.00,,,-99.99,FreeWX 2.03,2013-04-27 08:16:00,
2013-04-27 03:21:00,72.9,72.5,30.00,South,178,6.0,8.7,99,0.00,,,-99.99,FreeWX 2.03,2013-04-27 08:21:00,
2013-04-27 03:26:00,72.9,72.5,30.00,South,179,6.0,8.3,99,0.00,,,-99.99,FreeWX 2.03,2013-04-27 08:26:00,
2013-04-27 03:31:00,72.9,72.5,30.00,South,177,6.0,7.8,99,0.00,,,-99.99,FreeWX 2.03,2013-04-27 08:31:00,
2013-04-27 03:36:00,72.9,72.5,30.00,South,175,6.0,10.1,99,0.00,,,-99.99,FreeWX 2.03,2013-04-27 08:36:00,
2013-04-27 03:41:00,72.9,72.5,30.00,South,174,6.0,10.5,99,0.00,,,-99.99,FreeWX 2.03,2013-04-27 08:41:00,
2013-04-27 03:46:00,72.9,72.5,30.00,South,174,6.0,10.5,99,0.00,,,-99.99,FreeWX 2.03,2013-04-27 08:46:00,
2013-04-27 03:51:00,72.9,72.5,30.00,South,175,7.0,11.0,99,0.00,,,-99.99,FreeWX 2.03,2013-04-27 08:51:00,
2013-04-27 03:56:00,72.9,72.5,29.97,South,176,7.0,10.1,99,0.00,,,-99.99,FreeWX 2.03,2013-04-27 08:56:00,
2013-04-27 04:01:00,73.0,72.7,29.97,South,176,7.0,9.2,99,0.00,,,-99.99,FreeWX 2.03,2013-04-27 09:01:00,
2013-04-27 04:06:00,73.0,72.7,29.97,South,176,6.0,10.1,99,0.00,,,-99.99,FreeWX 2.03,2013-04-27 09:06:00,
2013-04-27 04:11:00,73.0,72.7,29.97,South,175,7.0,10.1,99,0.00,,,-99.99,FreeWX 2.03,2013-04-27 09:11:00,
2013-04-27 04:16:00,73.0,72.7,29.97,South,174,6.0,10.5,99,0.00,,,-99.99,FreeWX 2.03,2013-04-27 09:16:00,
2013-04-27 04:21:00,73.0,72.7,29.97,South,176,6.0,8.7,99,0.00,,,-99.99,FreeWX 2.03,2013-04-27 09:21:00,
2013-04-27 04:26:00,73.0,72.7,29.97,South,174,6.0,8.7,99,0.00,,,-99.99,FreeWX 2.03,2013-04-27 09:26:00,
2013-04-27 04:31:00,73.0,72.7,29.97,South,175,6.0,9.6,99,0.00,,,-99.99,FreeWX 2.03,2013-04-27 09:31:00,
2013-04-27 04:36:00,72.9,72.5,29.97,South,175,6.0,10.1,99,0.00,,,-99.99,FreeWX 2.03,2013-04-27 09:36:00,
2013-04-27 04:41:00,72.9,72.5,29.97,South,173,6.0,9.6,99,0.00,,,-99.99,FreeWX 2.03,2013-04-27 09:41:00,
2013-04-27 04:46:00,72.9,72.5,29.97,South,173,6.0,9.6,99,0.00,,,-99.99,FreeWX 2.03,2013-04-27 09:46:00,
2013-04-27 04:51:00,72.9,72.5,29.97,South,172,7.0,12.1,99,0.00,,,-99.99,FreeWX 2.03,2013-04-27 09:51:00,
2013-04-27 04:56:00,72.9,72.5,29.97,South,174,7.0,11.6,99,0.00,,,-99.99,FreeWX 2.03,2013-04-27 09:56:00,
2013-04-27 05:01:00,72.9,72.5,29.97,South,175,8.0,12.1,99,0.00,,,-99.99,FreeWX 2.03,2013-04-27 10:01:00,
2013-04-27 05:06:00,72.9,72.5,29.97,South,175,8.0,11.6,99,0.00,,,-99.99,FreeWX 2.03,2013-04-27 10:06:00,
2013-04-27 05:11:00,72.9,72.5,29.97,South,172,8.0,10.1,99,0.00,,,-99.99,FreeWX 2.03,2013-04-27 10:11:00,
2013-04-27 05:16:00,72.9,72.5,29.97,South,172,7.0,9.6,99,0.00,,,-99.99,FreeWX 2.03,2013-04-27 10:16:00,
2013-04-27 05:21:00,72.9,72.5,29.97,South,173,6.0,10.5,99,0.00,,,-99.99,FreeWX 2.03,2013-04-27 10:21:00,
2013-04-27 05:26:00,73.0,72.7,29.97,South,173,7.0,10.1,99,0.00,,,-99.99,FreeWX 2.03,2013-04-27 10:26:00,
2013-04-27 05:31:00,73.0,72.7,29.97,South,172,7.0,10.5,99,0.00,,,-99.99,FreeWX 2.03,2013-04-27 10:31:00,
2013-04-27 05:36:00,73.0,72.7,29.97,South,170,7.0,12.1,99,0.00,,,-99.99,FreeWX 2.03,2013-04-27 10:36:00,
2013-04-27 05:41:00,73.0,72.7,29.97,South,169,7.0,9.2,99,0.00,,,-99.99,FreeWX 2.03,2013-04-27 10:41:00,
2013-04-27 05:46:00,73.2,72.9,29.97,South,170,6.0,10.5,99,0.00,,,-99.99,FreeWX 2.03,2013-04-27 10:46:00,
2013-04-27 05:51:00,73.0,72.7,29.97,South,172,7.0,11.0,99,0.00,,,-99.99,FreeWX 2.03,2013-04-27 10:51:00,
2013-04-27 05:56:00,73.0,72.7,29.97,South,174,7.0,11.0,99,0.00,,,-99.99,FreeWX 2.03,2013-04-27 10:56:00,
2013-04-27 06:01:00,73.2,72.9,29.97,South,172,6.0,9.6,99,0.00,,,-99.99,FreeWX 2.03,2013-04-27 11:01:00,
2013-04-27 06:06:00,73.2,72.9,29.97,SSE,168,6.0,9.2,99,0.00,,,-99.99,FreeWX 2.03,2013-04-27 11:06:00,
2013-04-27 06:11:00,73.2,72.9,29.97,SSE,166,6.0,9.6,99,0.00,,,-99.99,FreeWX 2.03,2013-04-27 11:11:00,
2013-04-27 06:16:00,73.2,72.9,29.97,SSE,168,6.0,7.4,99,0.00,,,-99.99,FreeWX 2.03,2013-04-27 11:16:00,
2013-04-27 06:21:00,73.2,72.9,29.97,SSE,164,6.0,9.2,99,0.00,,,-99.99,FreeWX 2.03,2013-04-27 11:21:00,
2013-04-27 06:26:00,73.2,72.9,29.97,SSE,165,6.0,10.5,99,0.00,,,-99.99,FreeWX 2.03,2013-04-27 11:26:00,
2013-04-27 06:31:00,73.2,72.9,29.97,SSE,164,7.0,11.0,99,0.00,,,-99.99,FreeWX 2.03,2013-04-27 11:31:00,
2013-04-27 06:36:00,73.2,72.9,29.97,SSE,164,7.0,10.5,99,0.00,,,-99.99,FreeWX 2.03,2013-04-27 11:36:00,
2013-04-27 06:41:00,73.2,72.9,29.97,SSE,163,8.0,11.2,99,0.00,,,-99.99,FreeWX 2.03,2013-04-27 11:41:00,
2013-04-27 06:46:00,73.2,72.9,29.97,SSE,161,8.0,11.2,99,0.00,,,-99.99,FreeWX 2.03,2013-04-27 11:46:00,
2013-04-27 06:52:00,73.2,72.9,29.97,SSE,161,8.0,11.0,99,0.00,,,-99.99,FreeWX 2.03,2013-04-27 11:52:00,
2013-04-27 06:57:00,73.2,72.9,29.97,SSE,163,8.0,11.2,99,0.00,,,-99.99,FreeWX 2.03,2013-04-27 11:57:00,
2013-04-27 07:02:00,73.2,72.9,29.97,SSE,164,7.0,8.7,99,0.00,,,-99.99,FreeWX 2.03,2013-04-27 12:02:00,
2013-04-27 07:07:00,73.2,72.7,29.97,SSE,164,6.0,10.1,98,0.00,,,-99.99,FreeWX 2.03,2013-04-27 12:07:00,
2013-04-27 07:12:00,73.2,72.7,29.97,SSE,166,6.0,8.3,98,0.00,,,-99.99,FreeWX 2.03,2013-04-27 12:12:00,
2013-04-27 07:17:00,73.2,72.7,29.97,SSE,167,6.0,8.7,98,0.00,,,-99.99,FreeWX 2.03,2013-04-27 12:17:00,
2013-04-27 07:22:00,73.2,72.7,29.97,SSE,167,6.0,9.6,98,0.00,,,-99.99,FreeWX 2.03,2013-04-27 12:22:00,
2013-04-27 07:27:00,73.2,72.7,30.00,SSE,166,7.0,10.1,98,0.00,,,-99.99,FreeWX 2.03,2013-04-27 12:27:00,
2013-04-27 07:32:00,73.4,72.9,30.00,SSE,165,7.0,11.2,98,0.00,,,-99.99,FreeWX 2.03,2013-04-27 12:32:00,
2013-04-27 07:37:00,73.4,72.9,30.00,SSE,166,7.0,11.6,98,0.00,,,-99.99,FreeWX 2.03,2013-04-27 12:37:00,
2013-04-27 07:42:00,73.4,72.9,30.00,SSE,165,7.0,10.5,98,0.00,,,-99.99,FreeWX 2.03,2013-04-27 12:42:00,
2013-04-27 07:47:00,73.4,72.9,30.00,SSE,163,7.0,11.6,98,0.00,,,-99.99,FreeWX 2.03,2013-04-27 12:47:00,
2013-04-27 07:52:00,73.4,72.9,30.00,SSE,164,7.0,10.1,98,0.00,,,-99.99,FreeWX 2.03,2013-04-27 12:52:00,
2013-04-27 07:57:00,73.4,72.9,30.00,SSE,167,6.0,9.6,98,0.00,,,-99.99,FreeWX 2.03,2013-04-27 12:57:00,
2013-04-27 08:02:00,73.4,72.9,30.00,SSE,166,7.0,11.6,98,0.00,,,-99.99,FreeWX 2.03,2013-04-27 13:02:00,
2013-04-27 08:07:00,73.6,73.0,30.00,SSE,168,7.0,9.2,98,0.00,,,-99.99,FreeWX 2.03,2013-04-27 13:07:00,
2013-04-27 08:12:00,73.6,73.0,30.00,South,169,6.0,10.5,98,0.00,,,-99.99,FreeWX 2.03,2013-04-27 13:12:00,
2013-04-27 08:17:00,73.6,73.0,30.00,South,169,7.0,11.0,98,0.00,,,-99.99,FreeWX 2.03,2013-04-27 13:17:00,
2013-04-27 08:22:00,73.6,73.0,30.00,SSE,168,6.0,11.0,98,0.00,,,-99.99,FreeWX 2.03,2013-04-27 13:22:00,
2013-04-27 08:27:00,73.6,73.0,30.00,SSE,167,6.0,10.1,98,0.00,,,-99.99,FreeWX 2.03,2013-04-27 13:27:00,
2013-04-27 08:32:00,73.8,73.2,30.00,South,170,6.0,11.0,98,0.00,,,-99.99,FreeWX 2.03,2013-04-27 13:32:00,
2013-04-27 08:37:00,73.8,73.2,30.00,South,174,6.0,10.1,98,0.00,,,-99.99,FreeWX 2.03,2013-04-27 13:37:00,
2013-04-27 08:42:00,73.9,73.4,30.00,South,174,6.0,10.1,98,0.00,,,-99.99,FreeWX 2.03,2013-04-27 13:42:00,
2013-04-27 08:52:00,74.1,73.6,30.00,South,170,6.0,10.5,98,0.00,,,-99.99,FreeWX 2.03,2013-04-27 13:52:00,
2013-04-27 08:57:00,74.3,73.8,30.00,SSE,167,6.0,11.6,98,0.00,,,-99.99,FreeWX 2.03,2013-04-27 13:57:00,
2013-04-27 09:02:00,74.3,73.8,30.00,SSE,167,7.0,11.2,98,0.00,,,-99.99,FreeWX 2.03,2013-04-27 14:02:00,
2013-04-27 09:07:00,74.5,73.9,30.00,South,171,7.0,10.5,98,0.00,,,-99.99,FreeWX 2.03,2013-04-27 14:07:00,
2013-04-27 09:12:00,74.7,74.1,30.00,South,172,7.0,10.1,98,0.00,,,-99.99,FreeWX 2.03,2013-04-27 14:12:00,
2013-04-27 09:17:00,74.8,74.3,30.00,South,169,7.0,12.1,98,0.00,,,-99.99,FreeWX 2.03,2013-04-27 14:17:00,
2013-04-27 09:22:00,75.0,74.5,30.00,SSE,168,8.0,11.2,98,0.00,,,-99.99,FreeWX 2.03,2013-04-27 14:22:00,
2013-04-27 09:27:00,75.2,74.7,30.03,South,169,7.0,10.1,98,0.00,,,-99.99,FreeWX 2.03,2013-04-27 14:27:00,
2013-04-27 09:32:00,75.2,74.3,30.03,South,172,6.0,10.1,97,0.00,,,-99.99,FreeWX 2.03,2013-04-27 14:32:00,
2013-04-27 09:37:00,75.4,74.5,30.03,South,173,6.0,9.6,97,0.00,,,-99.99,FreeWX 2.03,2013-04-27 14:37:00,
2013-04-27 09:42:00,75.6,74.7,30.03,South,171,6.0,9.6,97,0.00,,,-99.99,FreeWX 2.03,2013-04-27 14:42:00,
2013-04-27 09:47:00,75.6,74.7,30.03,South,171,6.0,9.6,97,0.00,,,-99.99,FreeWX 2.03,2013-04-27 14:47:00,
2013-04-27 09:52:00,75.7,74.8,30.03,South,171,6.0,10.1,97,0.00,,,-99.99,FreeWX 2.03,2013-04-27 14:52:00,
2013-04-27 09:57:00,76.1,75.2,30.03,SSE,168,6.0,9.6,97,0.00,,,-99.99,FreeWX 2.03,2013-04-27 14:57:00,
2013-04-27 10:02:00,76.5,75.6,30.03,SSE,166,6.0,10.1,97,0.00,,,-99.99,FreeWX 2.03,2013-04-27 15:02:00,
2013-04-27 10:07:00,76.8,75.9,30.03,SSE,164,7.0,10.5,97,0.00,,,-99.99,FreeWX 2.03,2013-04-27 15:07:00,
2013-04-27 10:12:00,77.0,76.1,30.03,SSE,166,7.0,11.6,97,0.00,,,-99.99,FreeWX 2.03,2013-04-27 15:12:00,
2013-04-27 10:17:00,77.4,76.5,30.03,SSE,165,8.0,12.5,97,0.00,,,-99.99,FreeWX 2.03,2013-04-27 15:17:00,
2013-04-27 10:22:00,77.9,76.6,30.03,SSE,162,8.0,11.2,96,0.00,,,-99.99,FreeWX 2.03,2013-04-27 15:22:00,
2013-04-27 10:27:00,78.3,77.0,30.03,SSE,163,7.0,14.8,96,0.00,,,-99.99,FreeWX 2.03,2013-04-27 15:27:00,
2013-04-27 10:32:00,78.6,77.4,30.03,SSE,165,7.0,11.2,96,0.00,,,-99.99,FreeWX 2.03,2013-04-27 15:32:00,
2013-04-27 10:37:00,78.8,77.2,30.03,SSE,166,7.0,11.6,95,0.00,,,-99.99,FreeWX 2.03,2013-04-27 15:37:00,
2013-04-27 10:42:00,79.2,77.5,30.03,SSE,162,7.0,11.6,95,0.00,,,-99.99,FreeWX 2.03,2013-04-27 15:42:00,
2013-04-27 10:47:00,79.5,77.9,30.03,SSE,164,8.0,15.2,95,0.00,,,-99.99,FreeWX 2.03,2013-04-27 15:47:00,
2013-04-27 10:52:00,80.1,78.1,30.03,SSE,166,8.0,11.6,94,0.00,,,-99.99,FreeWX 2.03,2013-04-27 15:52:00,
2013-04-27 10:57:00,80.4,78.4,30.03,SSE,164,7.0,12.1,94,0.00,,,-99.99,FreeWX 2.03,2013-04-27 15:57:00,
2013-04-27 11:02:00,81.0,78.8,30.03,SSE,161,7.0,11.2,93,0.00,,,-99.99,FreeWX 2.03,2013-04-27 16:02:00,
2013-04-27 11:07:00,81.3,78.8,30.03,SSE,159,7.0,11.6,92,0.00,,,-99.99,FreeWX 2.03,2013-04-27 16:07:00,
2013-04-27 11:12:00,81.3,78.4,30.03,SSE,158,7.0,12.1,91,0.00,,,-99.99,FreeWX 2.03,2013-04-27 16:12:00,
2013-04-27 11:17:00,81.7,78.4,30.03,SSE,158,8.0,14.3,90,0.00,,,-99.99,FreeWX 2.03,2013-04-27 16:17:00,
2013-04-27 11:22:00,82.0,78.8,30.03,SSE,159,8.0,12.5,90,0.00,,,-99.99,FreeWX 2.03,2013-04-27 16:22:00,
2013-04-27 11:27:00,82.4,78.8,30.03,SSE,160,8.0,12.1,89,0.00,,,-99.99,FreeWX 2.03,2013-04-27 16:27:00,
2013-04-27 11:32:00,82.8,78.8,30.03,SSE,158,8.0,13.4,88,0.00,,,-99.99,FreeWX 2.03,2013-04-27 16:32:00,
2013-04-27 11:37:00,82.9,78.6,30.03,SSE,156,8.0,12.5,87,0.00,,,-99.99,FreeWX 2.03,2013-04-27 16:37:00,
2013-04-27 11:42:00,83.1,78.4,30.03,SSE,159,8.0,13.9,86,0.00,,,-99.99,FreeWX 2.03,2013-04-27 16:42:00,
2013-04-27 11:47:00,83.1,78.1,30.03,SSE,161,9.0,14.3,85,0.00,,,-99.99,FreeWX 2.03,2013-04-27 16:47:00,
2013-04-27 11:52:00,83.1,77.4,30.03,SSE,163,9.0,13.9,83,0.00,,,-99.99,FreeWX 2.03,2013-04-27 16:52:00,
2013-04-27 11:57:00,83.3,77.5,30.03,SSE,162,9.0,13.0,83,0.00,,,-99.99,FreeWX 2.03,2013-04-27 16:57:00,
2013-04-27 12:02:00,83.5,77.4,30.03,SSE,161,9.0,15.2,82,0.00,,,-99.99,FreeWX 2.03,2013-04-27 17:02:00,
2013-04-27 12:07:00,83.5,77.0,30.03,SSE,161,10.0,15.9,81,0.00,,,-99.99,FreeWX 2.03,2013-04-27 17:07:00,
2013-04-27 12:12:00,83.7,76.8,30.03,SSE,159,9.0,13.4,80,0.00,,,-99.99,FreeWX 2.03,2013-04-27 17:12:00,
2013-04-27 12:17:00,83.8,76.6,30.03,SSE,152,8.0,14.8,79,0.00,,,-99.99,FreeWX 2.03,2013-04-27 17:17:00,
2013-04-27 12:22:00,83.8,76.6,30.03,SSE,154,8.0,13.4,79,0.00,,,-99.99,FreeWX 2.03,2013-04-27 17:22:00,
2013-04-27 12:27:00,83.8,76.6,30.03,SSE,163,8.0,13.4,79,0.00,,,-99.99,FreeWX 2.03,2013-04-27 17:27:00,
2013-04-27 12:32:00,83.8,76.3,30.03,SSE,158,8.0,12.1,78,0.00,,,-99.99,FreeWX 2.03,2013-04-27 17:32:00,
2013-04-27 12:37:00,83.8,76.3,30.03,SSE,153,8.0,14.8,78,0.00,,,-99.99,FreeWX 2.03,2013-04-27 17:37:00,
2013-04-27 12:42:00,83.7,76.1,30.03,SSE,158,9.0,15.2,78,0.00,,,-99.99,FreeWX 2.03,2013-04-27 17:42:00,
2013-04-27 12:47:00,83.3,75.4,30.03,SSE,159,11.0,19.0,77,0.00,,,-99.99,FreeWX 2.03,2013-04-27 17:47:00,
2013-04-27 12:52:00,83.1,75.2,30.03,SSE,162,11.0,14.8,77,0.00,,,-99.99,FreeWX 2.03,2013-04-27 17:52:00,
2013-04-27 12:57:00,82.9,75.0,30.03,SSE,162,10.0,15.9,77,0.00,,,-99.99,FreeWX 2.03,2013-04-27 17:57:00,
2013-04-27 13:02:00,82.8,74.8,30.03,SSE,154,10.0,17.2,77,0.00,,,-99.99,FreeWX 2.03,2013-04-27 18:02:00,
2013-04-27 13:07:00,82.9,75.4,30.03,SSE,153,9.0,11.2,78,0.00,,,-99.99,FreeWX 2.03,2013-04-27 18:07:00,
2013-04-27 13:12:00,82.9,75.4,30.03,SSE,160,8.0,12.1,78,0.00,,,-99.99,FreeWX 2.03,2013-04-27 18:12:00,
2013-04-27 13:17:00,83.1,75.2,30.03,South,169,8.0,16.3,77,0.00,,,-99.99,FreeWX 2.03,2013-04-27 18:17:00,
2013-04-27 13:22:00,82.9,75.0,30.03,South,172,10.0,16.8,77,0.00,,,-99.99,FreeWX 2.03,2013-04-27 18:22:00,
2013-04-27 13:27:00,82.8,74.5,30.00,South,170,11.0,16.3,76,0.00,,,-99.99,FreeWX 2.03,2013-04-27 18:27:00,
2013-04-27 13:32:00,82.6,74.3,30.00,South,169,11.0,17.2,76,0.00,,,-99.99,FreeWX 2.03,2013-04-27 18:32:00,
2013-04-27 13:37:00,82.4,74.1,30.00,SSE,167,12.0,18.1,76,0.00,,,-99.99,FreeWX 2.03,2013-04-27 18:37:00,
2013-04-27 13:42:00,82.2,73.9,30.00,SSE,165,13.0,19.9,76,0.00,,,-99.99,FreeWX 2.03,2013-04-27 18:42:00,
2013-04-27 13:47:00,82.0,74.1,30.00,SSE,166,13.0,17.7,77,0.00,,,-99.99,FreeWX 2.03,2013-04-27 18:47:00,
2013-04-27 13:52:00,81.9,73.9,30.00,SSE,168,11.0,16.8,77,0.00,,,-99.99,FreeWX 2.03,2013-04-27 18:52:00,
2013-04-27 13:58:00,81.9,73.9,30.00,SSE,168,11.0,16.8,77,0.00,,,-99.99,FreeWX 2.03,2013-04-27 18:58:00,
2013-04-27 14:03:00,82.2,74.3,30.00,SSE,168,11.0,15.9,77,0.00,,,-99.99,FreeWX 2.03,2013-04-27 19:03:00,
2013-04-27 14:08:00,82.4,74.5,30.00,SSE,168,10.0,15.2,77,0.00,,,-99.99,FreeWX 2.03,2013-04-27 19:08:00,
2013-04-27 14:13:00,82.4,74.1,30.00,SSE,164,10.0,19.0,76,0.00,,,-99.99,FreeWX 2.03,2013-04-27 19:13:00,
2013-04-27 14:18:00,82.2,73.9,30.00,SSE,161,12.0,19.0,76,0.00,,,-99.99,FreeWX 2.03,2013-04-27 19:18:00,
2013-04-27 14:23:00,82.0,73.8,30.00,SSE,158,13.0,18.6,76,0.00,,,-99.99,FreeWX 2.03,2013-04-27 19:23:00,
2013-04-27 14:28:00,82.0,73.8,30.00,SSE,153,12.0,18.1,76,0.00,,,-99.99,FreeWX 2.03,2013-04-27 19:28:00,
2013-04-27 14:33:00,82.2,73.9,30.00,SSE,153,12.0,20.6,76,0.00,,,-99.99,FreeWX 2.03,2013-04-27 19:33:00,
2013-04-27 14:38:00,82.2,73.9,30.00,SSE,152,13.0,20.1,76,0.00,,,-99.99,FreeWX 2.03,2013-04-27 19:38:00,
2013-04-27 14:43:00,82.0,73.8,30.00,SSE,152,14.0,19.5,76,0.00,,,-99.99,FreeWX 2.03,2013-04-27 19:43:00,
2013-04-27 14:48:00,81.9,73.2,30.00,SSE,153,14.0,20.6,75,0.00,,,-99.99,FreeWX 2.03,2013-04-27 19:48:00,
2013-04-27 14:53:00,81.7,73.4,30.00,SSE,151,14.0,19.5,76,0.00,,,-99.99,FreeWX 2.03,2013-04-27 19:53:00,
2013-04-27 14:58:00,82.0,73.8,30.00,SSE,150,12.0,17.2,76,0.00,,,-99.99,FreeWX 2.03,2013-04-27 19:58:00,
2013-04-27 15:03:00,82.2,73.9,30.00,SSE,149,13.0,20.6,76,0.00,,,-99.99,FreeWX 2.03,2013-04-27 20:03:00,
2013-04-27 15:08:00,82.2,73.9,30.00,SSE,148,14.0,21.5,76,0.00,,,-99.99,FreeWX 2.03,2013-04-27 20:08:00,
2013-04-27 15:13:00,82.0,73.2,29.97,SSE,150,14.0,20.6,75,0.00,,,-99.99,FreeWX 2.03,2013-04-27 20:13:00,
2013-04-27 15:18:00,82.0,73.2,29.97,SSE,151,13.0,18.6,75,0.00,,,-99.99,FreeWX 2.03,2013-04-27 20:18:00,
2013-04-27 15:23:00,81.9,73.2,29.97,SSE,151,14.0,19.9,75,0.00,,,-99.99,FreeWX 2.03,2013-04-27 20:23:00,
2013-04-27 15:28:00,81.7,73.0,29.97,SSE,154,14.0,17.7,75,0.00,,,-99.99,FreeWX 2.03,2013-04-27 20:28:00,
2013-04-27 15:33:00,81.9,73.2,29.97,SSE,153,14.0,20.6,75,0.00,,,-99.99,FreeWX 2.03,2013-04-27 20:33:00,
2013-04-27 15:38:00,81.7,73.0,29.97,SSE,152,14.0,19.9,75,0.00,,,-99.99,FreeWX 2.03,2013-04-27 20:38:00,
2013-04-27 15:43:00,81.7,73.0,29.97,SSE,150,14.0,19.9,75,0.00,,,-99.99,FreeWX 2.03,2013-04-27 20:43:00,
2013-04-27 15:48:00,81.5,72.9,29.97,SSE,148,14.0,20.6,75,0.00,,,-99.99,FreeWX 2.03,2013-04-27 20:48:00,
2013-04-27 15:53:00,81.3,72.7,29.97,SSE,149,14.0,19.5,75,0.00,,,-99.99,FreeWX 2.03,2013-04-27 20:53:00,
2013-04-27 15:58:00,81.3,73.0,29.94,SSE,147,12.0,17.7,76,0.00,,,-99.99,FreeWX 2.03,2013-04-27 20:58:00,
2013-04-27 16:03:00,81.7,73.8,29.94,SSE,150,11.0,17.2,77,0.00,,,-99.99,FreeWX 2.03,2013-04-27 21:03:00,
2013-04-27 16:08:00,81.9,73.6,29.94,SSE,155,10.0,15.9,76,0.00,,,-99.99,FreeWX 2.03,2013-04-27 21:08:00,
2013-04-27 16:13:00,81.9,73.6,29.94,SSE,157,10.0,15.4,76,0.00,,,-99.99,FreeWX 2.03,2013-04-27 21:13:00,
2013-04-27 16:18:00,81.9,73.6,29.94,SSE,153,10.0,16.8,76,0.00,,,-99.99,FreeWX 2.03,2013-04-27 21:18:00,
2013-04-27 16:23:00,82.0,73.8,29.94,SSE,150,10.0,15.2,76,0.00,,,-99.99,FreeWX 2.03,2013-04-27 21:23:00,
2013-04-27 16:28:00,82.0,73.8,29.94,SSE,151,11.0,19.5,76,0.00,,,-99.99,FreeWX 2.03,2013-04-27 21:28:00,
2013-04-27 16:33:00,82.2,73.9,29.94,SSE,149,11.0,18.1,76,0.00,,,-99.99,FreeWX 2.03,2013-04-27 21:33:00,
2013-04-27 16:38:00,82.2,73.9,29.94,SSE,148,11.0,16.3,76,0.00,,,-99.99,FreeWX 2.03,2013-04-27 21:38:00,
2013-04-27 16:43:00,82.2,73.4,29.94,SSE,148,10.0,17.2,75,0.00,,,-99.99,FreeWX 2.03,2013-04-27 21:43:00,
2013-04-27 16:48:00,82.2,73.9,29.94,SE,145,11.0,19.0,76,0.00,,,-99.99,FreeWX 2.03,2013-04-27 21:48:00,
2013-04-27 16:53:00,82.0,73.2,29.94,SE,142,12.0,21.5,75,0.00,,,-99.99,FreeWX 2.03,2013-04-27 21:53:00,
2013-04-27 16:58:00,81.7,73.0,29.91,SE,142,13.0,19.5,75,0.00,,,-99.99,FreeWX 2.03,2013-04-27 21:58:00,
2013-04-27 17:03:00,81.1,72.5,29.91,SE,143,13.0,19.5,75,0.00,,,-99.99,FreeWX 2.03,2013-04-27 22:03:00,
2013-04-27 17:08:00,80.6,72.3,29.91,SE,144,12.0,19.0,76,0.00,,,-99.99,FreeWX 2.03,2013-04-27 22:08:00,
2013-04-27 17:13:00,80.6,72.7,29.91,SE,144,11.0,16.3,77,0.00,,,-99.99,FreeWX 2.03,2013-04-27 22:13:00,
2013-04-27 17:18:00,81.0,73.4,29.91,SE,146,10.0,20.1,78,0.00,,,-99.99,FreeWX 2.03,2013-04-27 22:18:00,
2013-04-27 17:23:00,81.0,73.4,29.91,SE,143,12.0,20.1,78,0.00,,,-99.99,FreeWX 2.03,2013-04-27 22:23:00,
2013-04-27 17:28:00,81.0,73.4,29.91,SE,143,12.0,16.3,78,0.00,,,-99.99,FreeWX 2.03,2013-04-27 22:28:00,
2013-04-27 17:33:00,81.0,73.4,29.91,SE,145,12.0,18.6,78,0.00,,,-99.99,FreeWX 2.03,2013-04-27 22:33:00,
2013-04-27 17:38:00,80.6,73.0,29.91,SE,145,12.0,17.7,78,0.00,,,-99.99,FreeWX 2.03,2013-04-27 22:38:00,
2013-04-27 17:43:00,80.4,72.9,29.91,SE,146,11.0,17.2,78,0.00,,,-99.99,FreeWX 2.03,2013-04-27 22:43:00,
2013-04-27 17:48:00,80.4,73.2,29.91,SSE,147,9.0,16.8,79,0.00,,,-99.99,FreeWX 2.03,2013-04-27 22:48:00,
2013-04-27 17:53:00,80.4,73.2,29.91,SSE,152,8.0,13.0,79,0.00,,,-99.99,FreeWX 2.03,2013-04-27 22:53:00,
2013-04-27 17:58:00,80.4,73.2,29.91,SSE,153,9.0,13.9,79,0.00,,,-99.99,FreeWX 2.03,2013-04-27 22:58:00,
2013-04-27 18:03:00,80.4,73.6,29.91,SSE,156,9.0,13.4,80,0.00,,,-99.99,FreeWX 2.03,2013-04-27 23:03:00,
2013-04-27 18:08:00,80.4,73.2,29.91,SSE,154,9.0,12.5,79,0.00,,,-99.99,FreeWX 2.03,2013-04-27 23:08:00,
2013-04-27 18:13:00,80.2,73.4,29.91,SSE,153,8.0,13.4,80,0.00,,,-99.99,FreeWX 2.03,2013-04-27 23:13:00,
2013-04-27 18:18:00,80.2,73.4,29.91,SSE,155,8.0,12.1,80,0.00,,,-99.99,FreeWX 2.03,2013-04-27 23:18:00,
2013-04-27 18:23:00,80.1,73.4,29.91,SSE,154,8.0,15.9,80,0.00,,,-99.99,FreeWX 2.03,2013-04-27 23:23:00,
2013-04-27 18:28:00,79.7,73.0,29.91,SSE,151,10.0,17.7,80,0.00,,,-99.99,FreeWX 2.03,2013-04-27 23:28:00,
2013-04-27 18:33:00,79.3,72.7,29.91,SSE,151,10.0,15.4,80,0.00,,,-99.99,FreeWX 2.03,2013-04-27 23:33:00,
2013-04-27 18:38:00,79.0,72.7,29.91,SSE,150,10.0,14.3,81,0.00,,,-99.99,FreeWX 2.03,2013-04-27 23:38:00,
2013-04-27 18:43:00,78.8,72.9,29.91,SSE,147,10.0,15.9,82,0.00,,,-99.99,FreeWX 2.03,2013-04-27 23:43:00,
2013-04-27 18:48:00,78.6,73.0,29.91,SSE,148,9.0,11.6,83,0.00,,,-99.99,FreeWX 2.03,2013-04-27 23:48:00,
2013-04-27 18:53:00,78.8,73.6,29.91,SSE,152,8.0,11.6,84,0.00,,,-99.99,FreeWX 2.03,2013-04-27 23:53:00,
2013-04-27 18:58:00,79.0,74.1,29.91,SSE,152,8.0,12.1,85,0.00,,,-99.99,FreeWX 2.03,2013-04-27 23:58:00,
2013-04-27 19:03:00,79.0,74.1,29.91,SSE,147,7.0,12.5,85,0.00,,,-99.99,FreeWX 2.03,2013-04-28 00:03:00,
2013-04-27 19:08:00,78.8,73.9,29.91,SE,146,7.0,11.6,85,0.00,,,-99.99,FreeWX 2.03,2013-04-28 00:08:00,
2013-04-27 19:13:00,78.8,73.9,29.91,SSE,149,7.0,11.0,85,0.00,,,-99.99,FreeWX 2.03,2013-04-28 00:13:00,
2013-04-27 19:18:00,78.8,73.9,29.91,SSE,154,6.0,10.5,85,0.00,,,-99.99,FreeWX 2.03,2013-04-28 00:18:00,
2013-04-27 19:23:00,78.4,73.9,29.91,SSE,155,7.0,10.5,86,0.00,,,-99.99,FreeWX 2.03,2013-04-28 00:23:00,
2013-04-27 19:28:00,78.1,73.6,29.91,SSE,153,7.0,12.1,86,0.00,,,-99.99,FreeWX 2.03,2013-04-28 00:28:00,
2013-04-27 19:33:00,77.7,73.2,29.91,SE,145,7.0,11.6,86,0.00,,,-99.99,FreeWX 2.03,2013-04-28 00:33:00,
2013-04-27 19:38:00,77.4,73.2,29.91,SE,141,7.0,11.6,87,0.00,,,-99.99,FreeWX 2.03,2013-04-28 00:38:00,
2013-04-27 19:43:00,77.2,73.0,29.91,SE,137,8.0,13.0,87,0.00,,,-99.99,FreeWX 2.03,2013-04-28 00:43:00,
2013-04-27 19:48:00,76.8,73.0,29.91,SE,137,8.0,11.6,88,0.00,,,-99.99,FreeWX 2.03,2013-04-28 00:48:00,
2013-04-27 19:53:00,76.5,73.0,29.91,SE,137,8.0,12.1,89,0.00,,,-99.99,FreeWX 2.03,2013-04-28 00:53:00,
2013-04-27 19:58:00,76.5,73.2,29.91,SE,141,7.0,11.2,90,0.00,,,-99.99,FreeWX 2.03,2013-04-28 00:58:00,
2013-04-27 20:03:00,76.3,73.0,29.91,SE,143,7.0,11.0,90,0.00,,,-99.99,FreeWX 2.03,2013-04-28 01:03:00,
2013-04-27 20:08:00,75.9,72.7,29.91,SE,141,8.0,12.1,90,0.00,,,-99.99,FreeWX 2.03,2013-04-28 01:08:00,
2013-04-27 20:13:00,75.7,72.9,29.91,SE,137,8.0,11.6,91,0.00,,,-99.99,FreeWX 2.03,2013-04-28 01:13:00,
2013-04-27 20:18:00,75.6,72.7,29.91,SE,140,8.0,11.6,91,0.00,,,-99.99,FreeWX 2.03,2013-04-28 01:18:00,
2013-04-27 20:23:00,75.4,72.9,29.91,SE,141,8.0,12.1,92,0.00,,,-99.99,FreeWX 2.03,2013-04-28 01:23:00,
2013-04-27 20:28:00,75.4,72.9,29.91,SE,143,8.0,15.2,92,0.00,,,-99.99,FreeWX 2.03,2013-04-28 01:28:00,
2013-04-27 20:33:00,75.2,73.0,29.91,SE,143,9.0,13.4,93,0.00,,,-99.99,FreeWX 2.03,2013-04-28 01:33:00,
2013-04-27 20:38:00,75.2,73.0,29.91,SSE,148,9.0,14.8,93,0.00,,,-99.99,FreeWX 2.03,2013-04-28 01:38:00,
2013-04-27 20:43:00,75.2,73.4,29.88,SSE,152,9.0,16.8,94,0.00,,,-99.99,FreeWX 2.03,2013-04-28 01:43:00,
2013-04-27 20:48:00,75.2,73.4,29.88,SSE,154,9.0,15.2,94,0.00,,,-99.99,FreeWX 2.03,2013-04-28 01:48:00,
2013-04-27 20:53:00,75.2,73.4,29.88,SSE,150,9.0,14.3,94,0.00,,,-99.99,FreeWX 2.03,2013-04-28 01:53:00,
2013-04-27 20:58:00,75.0,73.4,29.91,SE,144,10.0,16.8,95,0.00,,,-99.99,FreeWX 2.03,2013-04-28 01:58:00,
2013-04-27 21:03:00,75.0,73.4,29.91,SE,141,10.0,15.2,95,0.00,,,-99.99,FreeWX 2.03,2013-04-28 02:03:00,
2013-04-27 21:08:00,75.2,73.6,29.91,SE,141,10.0,15.4,95,0.00,,,-99.99,FreeWX 2.03,2013-04-28 02:08:00,
2013-04-27 21:13:00,75.2,73.9,29.91,SE,145,10.0,15.2,96,0.00,,,-99.99,FreeWX 2.03,2013-04-28 02:13:00,
2013-04-27 21:18:00,75.2,73.9,29.91,SE,143,10.0,13.4,96,0.00,,,-99.99,FreeWX 2.03,2013-04-28 02:18:00,
2013-04-27 21:23:00,75.2,73.9,29.91,SE,140,9.0,13.0,96,0.00,,,-99.99,FreeWX 2.03,2013-04-28 02:23:00,
2013-04-27 21:28:00,75.2,73.9,29.94,SE,136,9.0,15.4,96,0.00,,,-99.99,FreeWX 2.03,2013-04-28 02:28:00,
2013-04-27 21:33:00,75.2,73.9,29.94,SE,137,9.0,14.8,96,0.00,,,-99.99,FreeWX 2.03,2013-04-28 02:33:00,
2013-04-27 21:38:00,75.2,73.9,29.94,SE,139,9.0,13.0,96,0.00,,,-99.99,FreeWX 2.03,2013-04-28 02:38:00,
2013-04-27 21:43:00,75.2,73.9,29.94,SE,146,9.0,15.9,96,0.00,,,-99.99,FreeWX 2.03,2013-04-28 02:43:00,
2013-04-27 21:48:00,75.2,73.9,29.94,SE,143,10.0,15.2,96,0.00,,,-99.99,FreeWX 2.03,2013-04-28 02:48:00,
2013-04-27 21:53:00,75.2,73.9,29.94,SE,140,10.0,14.3,96,0.00,,,-99.99,FreeWX 2.03,2013-04-28 02:53:00,
2013-04-27 21:58:00,75.2,73.9,29.97,SE,139,10.0,14.3,96,0.00,,,-99.99,FreeWX 2.03,2013-04-28 02:58:00,
2013-04-27 22:03:00,75.2,73.9,29.97,SE,141,9.0,13.9,96,0.00,,,-99.99,FreeWX 2.03,2013-04-28 03:03:00,
2013-04-27 22:08:00,75.2,73.9,29.97,SE,145,8.0,13.0,96,0.00,,,-99.99,FreeWX 2.03,2013-04-28 03:08:00,
2013-04-27 22:13:00,75.4,74.1,29.97,SSE,150,8.0,15.4,96,0.00,,,-99.99,FreeWX 2.03,2013-04-28 03:13:00,
2013-04-27 22:18:00,75.4,74.1,29.97,SSE,153,10.0,16.3,96,0.00,,,-99.99,FreeWX 2.03,2013-04-28 03:18:00,
2013-04-27 22:23:00,75.2,73.9,29.97,SSE,154,11.0,17.7,96,0.00,,,-99.99,FreeWX 2.03,2013-04-28 03:23:00,
2013-04-27 22:28:00,75.2,73.9,29.97,SSE,156,11.0,17.2,96,0.00,,,-99.99,FreeWX 2.03,2013-04-28 03:28:00,
2013-04-27 22:34:00,75.2,73.9,29.97,SSE,158,11.0,15.9,96,0.00,,,-99.99,FreeWX 2.03,2013-04-28 03:34:00,
2013-04-27 22:39:00,75.2,74.3,29.97,SSE,161,11.0,15.2,97,0.00,,,-99.99,FreeWX 2.03,2013-04-28 03:39:00,
2013-04-27 22:44:00,75.4,74.5,29.97,SSE,158,11.0,17.7,97,0.00,,,-99.99,FreeWX 2.03,2013-04-28 03:44:00,
2013-04-27 22:49:00,75.2,74.3,29.97,SSE,155,11.0,15.9,97,0.00,,,-99.99,FreeWX 2.03,2013-04-28 03:49:00,
2013-04-27 22:54:00,75.2,74.3,29.97,SSE,153,11.0,14.3,97,0.00,,,-99.99,FreeWX 2.03,2013-04-28 03:54:00,
2013-04-27 22:59:00,75.2,73.9,29.94,SSE,153,11.0,14.8,96,0.00,,,-99.99,FreeWX 2.03,2013-04-28 03:59:00,
2013-04-27 23:04:00,75.0,74.1,29.94,SSE,156,11.0,16.8,97,0.00,,,-99.99,FreeWX 2.03,2013-04-28 04:04:00,
2013-04-27 23:09:00,75.2,74.3,29.94,SSE,161,10.0,15.2,97,0.00,,,-99.99,FreeWX 2.03,2013-04-28 04:09:00,
2013-04-27 23:14:00,75.2,74.3,29.94,SSE,162,10.0,15.9,97,0.00,,,-99.99,FreeWX 2.03,2013-04-28 04:14:00,
2013-04-27 23:19:00,75.2,74.3,29.94,SSE,165,9.0,11.6,97,0.00,,,-99.99,FreeWX 2.03,2013-04-28 04:19:00,
2013-04-27 23:24:00,75.4,74.5,29.94,South,170,8.0,11.0,97,0.00,,,-99.99,FreeWX 2.03,2013-04-28 04:24:00,
2013-04-27 23:29:00,75.2,74.3,29.97,South,175,8.0,13.4,97,0.00,,,-99.99,FreeWX 2.03,2013-04-28 04:29:00,
2013-04-27 23:34:00,75.2,74.3,29.97,South,175,8.0,12.1,97,0.00,,,-99.99,FreeWX 2.03,2013-04-28 04:34:00,
2013-04-27 23:39:00,75.2,74.3,29.97,South,175,8.0,11.6,97,0.00,,,-99.99,FreeWX 2.03,2013-04-28 04:39:00,
2013-04-27 23:44:00,75.0,74.1,29.97,South,177,8.0,12.5,97,0.00,,,-99.99,FreeWX 2.03,2013-04-28 04:44:00,
2013-04-27 23:49:00,75.0,74.1,29.97,South,175,8.0,11.0,97,0.00,,,-99.99,FreeWX 2.03,2013-04-28 04:49:00,
2013-04-27 23:54:00,75.0,74.1,29.97,South,169,7.0,11.6,97,0.00,,,-99.99,FreeWX 2.03,2013-04-28 04:54:00,
2013-04-27 23:59:00,74.8,73.9,29.97,SSE,165,8.0,13.0,97,0.00,,,-99.99,FreeWX 2.03,2013-04-28 04:59:00,